Temperature
15 15 16 15 16 16 17 17 17 17 16 16 15 15 16 16 16 15 16 16 15 15 15 15 14 15 15 15 14 14 14 14 14 15 15 16 16 17
14 15 15 16 15 16 16 17 17 17 17 16 16 16 16 16 15 15 16 15 15 15 15 15 14 14 15 15 15 14 14 14 15 15 16 16 16 16
13 14 14 15 15 15 16 16 17 17 16 16 16 16 15 15 15 15 15 15 15 15 15 15 14 14 14 15 15 15 15 15 15 15 16 16 16 16
13 13 13 14 15 14 15 15 16 16 16 16 16 15 15 15 15 15 15 15 15 15 15 15 15 14 14 15 15 15 15 15 15 15 15 15 16 16
13 12 13 13 14 14 14 15 15 15 15 15 15 15 15 14 15 15 14 14 14 15 15 15 15 14 15 15 15 15 15 15 15 15 15 15 15 15
12 12 12 13 13 13 14 14 15 15 14 14 15 15 15 14 14 14 14 14 14 14 15 15 15 14 15 15 15 15 15 15 15 15 15 15 15 15
13 13 13 13 13 13 14 14 14 14 14 14 14 15 15 14 14 14 14 14 13 14 14 15 15 15 15 15 14 14 14 14 14 14 14 14 14 14
14 14 14 13 13 13 14 14 14 14 14 14 14 14 15 15 14 14 13 12 12 13 14 14 15 15 15 15 15 14 13 14 14 14 14 13 13 13
14 14 14 14 14 14 14 14 14 14 14 14 15 15 15 15 15 14 13 13 13 13 13 13 14 14 14 15 15 14 13 13 13 13 13 12 12 11
14 14 14 14 14 14 14 13 14 14 14 14 14 14 14 14 14 14 14 13 12 12 12 13 13 13 13 14 14 14 13 13 13 13 13 12 11 11
14 14 14 14 14 14 14 13 13 13 13 14 14 14 14 14 14 14 13 13 13 12 12 12 13 13 13 14 14 14 13 13 13 13 12 12 11 11
14 14 14 14 14 14 14 13 13 13 13 14 14 14 14 14 14 13 13 13 13 12 13 12 12 12 13 13 14 14 14 14 14 13 13 12 11 11
14 14 14 14 14 14 13 13 13 13 13 14 14 14 14 14 13 13 13 12 12 12 13 13 13 13 12 13 13 14 14 14 14 14 13 12 11 11
13 13 13 14 14 14 13 13 13 13 13 13 14 13 13 13 12 12 12 12 12 12 12 12 12 13 13 12 13 13 14 14 14 14 13 12 12 11
13 13 13 14 14 14 13 13 13 13 13 13 12 12 12 12 12 12 12 12 12 11 11 12 12 12 12 12 12 12 13 13 14 14 13 13 13 12
12 13 13 13 13 13 13 13 12 12 12 12 12 12 12 11 11 12 11 11 11 11 11 11 11 11 11 11 11 11 12 12 13 13 12 12 13 12
12 12 12 13 13 12 12 12 12 11 11 11 11 11 11 11 11 11 11 11 11 11 11 11 11 11 11 11 10 10 11 11 11 11 11 11 12 12
11 11 12 12 12 12 12 12 12 11 11 11 11 11 11 11 11 10 10 10 10 10 10 10 10 10 10 10 10 10 10 10 10 10 10 11 11 11
11 11 11 11 11 11 11 11 11 11 10 10 10 10 10 10 10 10 10 10 10 10 10 10 10 10 10 10 10 10 10 10 9 9 10 10 11 11
10 10 10 10 10 10 10 10 10 10 10 10 10 10 10 10 10 10 10 10 10 10 10 10 10 10 10 10 10 10 10 10 9 9 9 9 9 9
10 10 10 10 10 10 10 10 9 9 9 9 9 9 9 9 9 9 9 9 9 9 9 9 9 9 9 9 9 9 9 9 9 9 8 8 8 8
10 10 10 9 9 9 9 9 9 9 9 9 9 9 9 9 9 9 9 9 9 9 8 9 9 9 9 9 9 9 9 9 9 8 8 8 8 8
9 9 9 9 9 9 9 9 9 9 9 9 9 9 9 9 8 8 8 8 8 8 8 8 8 8 8 8 8 8 8 8 8 8 8 8 8 8
Wind_Speed
8 8 7 5 6 4 2 3 5 5 4 4 4 6 9 10 13 11 12 11 10 9 8 7 7 6 5 5 6 6 6 5 5 6 8 10 11 12
5 5 4 3 3 7 3 1 2 5 5 6 4 6 6 9 11 8 14 13 11 9 8 7 6 5 4 4 4 5 6 5 4 4 5 7 9 11
5 4 4 3 2 6 6 3 2 2 4 4 3 5 7 7 6 6 13 13 12 11 9 7 5 3 2 3 4 6 7 6 5 4 3 5 8 10
6 6 5 4 3 4 6 4 2 3 2 4 3 4 7 8 8 6 8 11 13 14 12 10 7 4 1 1 3 5 5 5 6 7 6 7 8 9
6 6 5 6 4 0 2 2 2 4 5 3 4 4 4 6 9 7 5 4 9 14 13 11 9 7 5 3 1 2 2 4 6 8 9 9 9 10
6 6 6 6 6 4 2 0 1 4 7 6 4 4 4 5 7 6 5 5 4 9 11 12 13 11 8 6 4 3 2 4 5 6 7 7 8 8
7 7 8 9 10 7 5 3 1 3 5 7 6 4 5 5 7 6 6 5 6 5 5 6 8 8 10 10 9 6 5 5 5 5 6 6 7 7
9 9 9 11 14 14 13 9 7 7 7 7 6 6 9 8 7 6 7 6 5 6 6 7 5 7 9 13 15 13 9 7 7 6 6 5 5 6
10 10 10 12 14 9 12 15 15 16 15 9 7 8 8 9 10 9 8 8 6 6 6 6 6 7 7 13 21 19 14 10 9 7 5 4 3 3
6 6 8 10 12 12 9 9 10 10 11 9 7 6 6 7 11 11 9 7 5 4 6 5 5 5 4 10 19 19 16 13 10 8 6 4 4 4
7 7 7 6 13 17 10 7 5 3 2 4 5 4 3 3 5 7 8 6 5 4 5 5 5 4 4 5 14 18 17 15 13 11 9 8 7 7
6 6 7 3 5 12 8 5 2 1 3 4 4 2 1 1 3 5 7 7 5 4 6 5 4 5 4 4 5 12 13 15 15 13 12 12 10 8
4 3 3 10 11 9 4 3 4 2 3 3 2 1 1 1 2 2 2 4 5 4 6 8 5 5 5 4 4 6 9 8 12 12 15 15 14 12
5 2 5 10 10 8 5 7 6 2 2 2 2 2 2 2 1 1 2 3 3 0 3 7 4 5 6 4 4 5 7 9 9 7 12 16 17 17
1 5 10 9 8 6 7 7 4 1 2 2 1 1 1 2 2 2 2 2 2 2 4 1 1 3 5 5 4 5 5 6 6 7 8 7 8 8
3 8 10 7 4 7 6 3 2 1 3 2 1 2 1 1 1 2 2 2 1 2 3 4 2 1 1 2 3 5 6 6 6 8 8 7 10 13
2 4 4 4 4 4 3 3 2 2 2 1 1 1 2 2 2 2 2 2 3 3 3 3 2 1 1 1 3 4 4 5 5 8 7 6 6 8
2 2 3 4 4 5 4 2 1 1 2 3 2 2 3 3 3 2 3 3 4 4 4 3 4 2 1 3 6 5 4 6 5 7 7 7 7 6
1 1 2 2 3 3 3 2 2 3 3 3 3 3 3 2 2 3 3 4 4 5 5 4 5 6 7 7 6 12 10 7 6 7 8 8 8 7
3 4 4 4 4 4 3 2 1 1 0 1 1 2 2 3 2 3 3 4 4 5 5 5 6 8 10 7 4 5 16 11 8 9 8 7 6 4
4 4 4 4 4 4 3 2 2 2 1 1 2 2 1 2 3 4 4 5 5 5 6 6 7 10 6 3 3 4 4 11 8 4 5 7 6 5
4 5 5 5 4 4 3 3 3 3 3 2 2 2 2 1 2 4 4 4 4 4 5 5 3 3 5 7 9 7 4 3 5 7 6 4 4 5
5 5 4 4 4 4 4 4 4 4 4 4 3 3 2 2 2 3 4 4 3 4 5 4 2 2 3 4 6 5 5 4 4 4 3 6 9 11
Wind_Direction
216 205 203 229 286 272 202 160 152 163 188 172 163 173 170 153 166 188 169 162 156 144 124 105 88 70 59 51 44 34 21 11 16 23 26 29 28 26
223 213 206 178 257 285 277 232 158 161 185 191 178 166 159 162 181 216 155 161 162 161 147 130 109 80 61 53 41 23 6 356 4 16 32 36 35 34
208 193 174 141 174 274 276 260 251 207 190 194 162 158 152 164 164 178 156 167 174 175 170 161 144 108 52 31 21 9 3 359 3 16 44 51 40 35
181 172 157 136 101 284 274 267 272 288 241 183 159 169 172 172 165 190 177 196 177 185 184 182 177 174 191 357 3 1 11 36 50 51 65 61 47 40
165 161 148 125 115 202 299 307 341 312 298 239 183 180 186 175 165 184 184 216 175 179 188 194 194 195 206 225 294 343 41 87 77 66 64 62 50 45
184 183 176 160 159 175 201 89 13 311 285 262 208 185 199 185 168 175 194 206 200 176 189 192 199 201 207 217 233 245 183 133 110 86 74 69 59 54
202 207 206 202 197 199 200 186 191 275 277 259 225 191 196 189 191 180 192 189 207 190 167 178 180 194 206 215 221 219 188 162 143 118 94 80 73 74
214 219 219 220 221 221 223 221 219 235 247 248 229 205 206 201 189 186 185 182 207 197 172 189 177 195 200 202 208 200 186 172 158 137 112 95 83 79
214 212 215 216 216 223 230 232 236 238 234 236 239 228 210 198 189 193 194 198 207 190 172 195 185 199 199 199 188 186 186 181 174 165 150 139 135 112
236 216 206 202 202 207 215 223 229 235 232 227 235 246 237 206 192 198 197 198 213 188 154 183 182 193 172 159 176 183 187 188 188 190 194 194 187 184
250 235 228 220 200 196 204 222 226 227 180 147 121 94 43 303 213 181 174 173 197 198 176 179 178 174 177 167 186 191 192 195 196 203 212 215 212 207
254 239 216 182 152 179 194 205 208 206 136 125 117 127 171 215 191 178 177 183 183 183 188 184 172 151 184 191 168 187 198 203 204 208 216 219 218 219
276 247 156 142 135 142 135 108 123 100 101 117 132 152 178 232 219 194 165 181 183 199 187 182 182 163 174 179 175 179 192 198 200 210 218 222 222 222
287 259 132 141 138 135 119 117 108 87 120 142 162 173 186 208 223 148 110 73 85 17 256 182 185 174 175 159 194 185 191 194 189 198 208 217 222 230
313 120 129 136 131 116 112 118 130 167 143 160 164 166 179 169 146 119 103 94 61 339 331 250 217 189 183 194 184 174 182 202 190 192 198 196 200 206
128 117 126 139 134 124 130 149 206 168 147 179 182 167 148 156 182 168 160 146 196 260 257 276 325 16 225 227 194 186 182 192 194 196 197 197 198 201
106 147 152 160 158 135 128 121 105 119 153 204 186 170 180 202 219 198 188 187 206 228 222 202 190 123 126 185 230 225 206 208 193 187 195 208 210 200
19 228 192 175 163 148 145 152 183 236 231 219 216 209 207 211 211 199 204 217 234 236 231 203 177 180 238 255 210 221 226 226 214 193 197 209 229 224
36 359 47 78 87 106 128 154 204 229 223 220 222 228 219 214 218 221 220 231 245 246 235 213 198 204 226 242 234 207 218 225 215 206 206 208 222 227
85 83 75 67 65 65 70 59 2 351 355 304 290 266 205 189 221 250 245 244 254 254 249 225 213 215 227 237 230 224 209 212 212 215 213 210 223 214
79 76 73 68 60 53 47 31 359 342 332 325 304 288 263 214 226 243 257 265 266 268 266 254 239 226 229 222 243 244 229 217 215 201 203 196 200 199
59 68 65 57 44 33 21 3 344 340 340 332 306 292 284 271 261 260 255 254 254 258 270 275 270 212 206 226 242 245 216 177 165 126 90 107 146 179
45 57 60 55 41 34 25 13 11 7 5 355 341 318 290 275 272 273 274 268 268 279 288 287 277 247 238 241 251 248 207 173 160 158 122 103 100 94
Height
1511 1513 1515 1517 1520 1525 1529 1531 1534 1535 1537 1539 1539 1539 1540 1540 1541 1541 1541 1542 1542 1541 1541 1540 1539 1539 1538 1537 1537 1536 1536 1536 1536 1536 1536 1535 1535 1534
1504 1508 1510 1513 1515 1519 1524 1526 1529 1531 1532 1534 1535 1536 1537 1538 1539 1539 1539 1540 1540 1540 1539 1538 1538 1537 1536 1536 1536 1535 1535 1536 1536 1535 1535 1534 1533 1532
1497 1501 1504 1507 1510 1514 1519 1522 1524 1527 1528 1530 1531 1532 1534 1535 1536 1536 1537 1538 1538 1537 1537 1537 1536 1535 1534 1534 1534 1534 1534 1534 1534 1534 1534 1533 1532 1530
1493 1495 1497 1501 1505 1509 1514 1517 1519 1522 1525 1526 1527 1529 1530 1531 1533 1533 1534 1534 1534 1535 1534 1534 1533 1532 1532 1532 1532 1532 1533 1532 1532 1532 1532 1531 1530 1529
1490 1491 1493 1495 1500 1504 1508 1512 1514 1517 1520 1523 1524 1525 1526 1527 1528 1529 1530 1530 1530 1531 1532 1531 1531 1530 1530 1530 1530 1531 1531 1531 1530 1530 1530 1529 1528 1527
1489 1490 1491 1493 1497 1501 1505 1508 1510 1512 1515 1518 1520 1521 1523 1524 1524 1524 1525 1526 1527 1527 1528 1529 1529 1529 1528 1528 1528 1528 1528 1528 1528 1528 1527 1527 1526 1526
1488 1488 1489 1491 1494 1498 1501 1504 1506 1509 1512 1514 1516 1516 1517 1519 1519 1519 1521 1522 1523 1524 1524 1525 1526 1526 1526 1525 1525 1526 1526 1526 1525 1524 1524 1524 1524 1524
1488 1488 1488 1489 1491 1494 1497 1500 1502 1505 1508 1510 1511 1511 1511 1513 1515 1516 1517 1518 1519 1520 1520 1521 1522 1522 1522 1522 1523 1523 1523 1523 1522 1521 1520 1520 1520 1521
1487 1487 1487 1488 1490 1491 1493 1495 1498 1501 1504 1505 1506 1506 1507 1507 1509 1511 1512 1513 1514 1516 1517 1517 1518 1518 1518 1518 1519 1520 1520 1520 1519 1519 1518 1517 1517 1518
1485 1486 1486 1486 1487 1489 1490 1492 1494 1497 1498 1499 1500 1501 1502 1503 1504 1505 1507 1509 1512 1513 1514 1515 1515 1515 1515 1515 1516 1516 1517 1517 1516 1515 1515 1514 1514 1515
1482 1483 1483 1484 1484 1486 1488 1489 1491 1493 1494 1495 1495 1496 1497 1498 1500 1501 1502 1504 1505 1507 1509 1511 1511 1511 1512 1512 1513 1513 1513 1513 1512 1512 1511 1511 1512 1513
1479 1480 1480 1481 1482 1483 1485 1487 1489 1489 1490 1491 1492 1492 1492 1492 1494 1496 1497 1499 1500 1502 1504 1507 1508 1508 1508 1508 1509 1510 1509 1509 1508 1508 1508 1509 1510 1511
1475 1476 1476 1477 1478 1480 1482 1484 1485 1486 1487 1487 1487 1487 1487 1488 1489 1491 1493 1494 1496 1498 1500 1503 1503 1503 1504 1504 1504 1505 1506 1506 1505 1505 1505 1506 1507 1508
1470 1472 1472 1473 1475 1477 1479 1480 1482 1483 1484 1484 1484 1484 1484 1485 1485 1487 1488 1489 1491 1493 1495 1497 1498 1499 1500 1500 1500 1500 1501 1502 1502 1501 1501 1502 1503 1504
1467 1468 1469 1471 1472 1474 1476 1478 1479 1480 1481 1481 1481 1482 1483 1483 1483 1484 1484 1485 1487 1488 1490 1492 1493 1495 1496 1497 1497 1497 1497 1497 1497 1497 1498 1498 1499 1500
1464 1466 1468 1469 1470 1472 1474 1475 1477 1478 1479 1479 1479 1480 1481 1481 1482 1481 1482 1482 1483 1484 1485 1486 1487 1489 1490 1492 1493 1493 1493 1493 1493 1493 1493 1494 1495 1496
1462 1464 1466 1468 1469 1470 1472 1474 1475 1476 1477 1477 1477 1477 1478 1479 1479 1479 1478 1478 1479 1479 1480 1481 1482 1483 1483 1485 1486 1488 1488 1488 1489 1490 1490 1489 1490 1491
1461 1463 1465 1467 1468 1469 1471 1472 1473 1474 1474 1474 1474 1475 1475 1476 1476 1476 1476 1476 1475 1475 1476 1476 1477 1477 1478 1478 1480 1480 1481 1482 1483 1484 1485 1485 1486 1487
1460 1462 1464 1466 1468 1469 1470 1471 1471 1472 1472 1472 1472 1473 1473 1473 1473 1473 1473 1472 1472 1472 1472 1472 1472 1472 1471 1470 1471 1473 1473 1474 1476 1477 1478 1479 1481 1483
1461 1463 1465 1466 1468 1469 1469 1470 1470 1471 1471 1471 1471 1471 1470 1471 1471 1470 1470 1469 1468 1468 1467 1467 1467 1466 1466 1466 1465 1465 1467 1468 1469 1470 1471 1473 1475 1478
1464 1465 1466 1467 1467 1468 1468 1469 1469 1469 1469 1469 1469 1469 1468 1468 1467 1467 1466 1465 1464 1463 1462 1462 1461 1461 1460 1460 1459 1459 1461 1461 1462 1463 1465 1467 1468 1470
1466 1466 1467 1467 1467 1467 1467 1467 1467 1467 1467 1466 1466 1466 1465 1465 1464 1463 1462 1461 1460 1459 1458 1457 1456 1455 1454 1453 1452 1453 1453 1454 1455 1455 1457 1460 1460 1462
1468 1468 1468 1467 1467 1466 1466 1466 1466 1465 1464 1464 1463 1462 1461 1461 1460 1459 1458 1457 1456 1454 1453 1451 1450 1449 1448 1447 1447 1446 1447 1447 1447 1448 1450 1451 1453 1456